tititudorancea.com
Station Historical Data
Daily Summary for January 4, 2018 Units:  Metric    English   Both
« Previous Day
Next Day »
Daily Weekly Monthly Yearly Custom
  High: Low: Average:
Temperature: -17.8 °C 10.2 °C 19.3 °C
Dew Point: -17.8 °C 8.5 °C 10.4 °C
Humidity: Humidity % 33 % 61 %
Wind Speed: 0 km/h 0 km/h 7.7 km/h
Wind Gust: 0 km/h - -
Wind:- - SSW
Pressure: 0 hPa 1012.8 hPa -
Precipitation: 0 mm    
Historical Graphs
 
 
Ararat weather Find more about Weather in Ararat, AU


 



 


Tabular Data for January 4, 2018
Time Temperature Dew Point Pressure Wind Wind Speed Wind Gust Humidity Rainfall Rate (Hourly)
-17.8 °C -17.8 °C 0 hPa Calm     Humidity % 0 mm
00:04 13.4 °C 9.6 °C 1016.5 hPa North 9 km/h 13 km/h 78 % 0 mm
00:09 13.3 °C 9.6 °C 1016.5 hPa North 7.2 km/h 13 km/h 78 % 0 mm
00:14 13.3 °C 9.7 °C 1016.5 hPa South 6.1 km/h 11.3 km/h 79 % 0 mm
00:15 13.3 °C 9.7 °C 1016.5 hPa South 7.2 km/h 11.1 km/h 79 % 0 mm
00:20 13.2 °C 9.7 °C 1016.5 hPa South 8.2 km/h 13 km/h 79 % 0 mm
00:21 13.2 °C 9.7 °C 1016.5 hPa South 4.7 km/h 11.1 km/h 79 % 0 mm
00:22 13.2 °C 9.6 °C 1016.5 hPa South 4.8 km/h 6.4 km/h 79 % 0 mm
00:27 13.1 °C 9.7 °C 1016.5 hPa South 5.8 km/h 9.3 km/h 80 % 0 mm
00:32 13 °C 9.6 °C 1016.5 hPa South 5.1 km/h 9.7 km/h 80 % 0 mm
00:34 13 °C 9.6 °C 1016.5 hPa South 5.5 km/h 9.3 km/h 80 % 0 mm
00:39 12.9 °C 9.5 °C 1016.5 hPa North 4.2 km/h 9.3 km/h 80 % 0 mm
00:41 12.9 °C 9.7 °C 1016.5 hPa South 6 km/h 7.4 km/h 81 % 0 mm
00:46 12.8 °C 9.6 °C 1016.5 hPa South 4.7 km/h 7.4 km/h 81 % 0 mm
00:52 12.7 °C 9.6 °C 1016.1 hPa North 3.1 km/h 7.4 km/h 81 % 0 mm
00:55 12.7 °C 9.6 °C 1016.1 hPa South 4.3 km/h 8 km/h 81 % 0 mm
00:56 12.7 °C 9.6 °C 1016.1 hPa South 5 km/h 7.4 km/h 81 % 0 mm
01:00 12.7 °C 9.7 °C 1016.1 hPa South 3.7 km/h 4.8 km/h 82 % 0 mm
01:01 12.7 °C 9.7 °C 1016.1 hPa South 5.3 km/h 6.4 km/h 82 % 0 mm
01:05 12.6 °C 9.6 °C 1016.1 hPa North 5.8 km/h 7.4 km/h 82 % 0 mm
01:09 12.6 °C 9.6 °C 1016.1 hPa South 6.3 km/h 7.4 km/h 82 % 0 mm
01:12 12.6 °C 9.6 °C 1016.1 hPa South 6.9 km/h 13 km/h 82 % 0 mm
01:17 12.5 °C 9.5 °C 1016.1 hPa South 4.3 km/h 13 km/h 82 % 0 mm
01:18 12.5 °C 9.5 °C 1016.1 hPa South 4.8 km/h 8 km/h 82 % 0 mm
01:23 12.4 °C 9.6 °C 1016.1 hPa South 7.4 km/h 11.1 km/h 83 % 0 mm
01:24 12.4 °C 9.6 °C 1016.1 hPa North 8 km/h 13 km/h 83 % 0 mm
01:25 12.4 °C 9.6 °C 1016.1 hPa South 5.1 km/h 11.1 km/h 83 % 0 mm
01:30 12.4 °C 9.6 °C 1015.8 hPa North 6.9 km/h 9.3 km/h 83 % 0 mm
01:31 12.4 °C 9.6 °C 1015.8 hPa South 6.4 km/h 11.1 km/h 83 % 0 mm
01:32 12.4 °C 9.6 °C 1015.8 hPa South 5.5 km/h 7.4 km/h 83 % 0 mm
01:36 12.4 °C 9.6 °C 1015.8 hPa South 4.8 km/h 7.4 km/h 83 % 0 mm
01:38 12.4 °C 9.6 °C 1015.8 hPa South 6.4 km/h 11.1 km/h 83 % 0 mm
01:41 12.4 °C 9.8 °C 1015.5 hPa South 6.3 km/h 9.3 km/h 84 % 0 mm
01:46 12.4 °C 9.6 °C 1015.8 hPa South 4.8 km/h 5.6 km/h 83 % 0 mm
01:48 12.4 °C 9.6 °C 1015.8 hPa South 4.5 km/h 9.3 km/h 83 % 0 mm
01:53 12.3 °C 9.5 °C 1015.5 hPa South 3.4 km/h 5.6 km/h 83 % 0 mm
01:55 12.3 °C 9.5 °C 1015.5 hPa South 2.4 km/h 3.2 km/h 83 % 0 mm
02:00 12.2 °C 9.6 °C 1015.5 hPa North 2.1 km/h 7.4 km/h 84 % 0 mm
02:05 12.1 °C 9.5 °C 1015.5 hPa South 3.1 km/h 5.6 km/h 84 % 0 mm
02:06 12.1 °C 9.5 °C 1015.5 hPa South 3.2 km/h 7.4 km/h 84 % 0 mm
02:11 12 °C 9.4 °C 1015.5 hPa North 0.2 km/h 5.6 km/h 84 % 0 mm
02:17 11.9 °C 9.3 °C 1015.5 hPa South 0.6 km/h 1.9 km/h 84 % 0 mm
02:18 11.9 °C 9.3 °C 1015.5 hPa South 0.5 km/h 1.9 km/h 84 % 0 mm
02:23 11.8 °C 9.4 °C 1015.1 hPa South 0.2 km/h 3.2 km/h 85 % 0 mm
02:24 11.8 °C 9.3 °C 1015.1 hPa South 2.4 km/h 3.7 km/h 85 % 0 mm
02:28 11.7 °C 9.3 °C 1015.1 hPa South 1.3 km/h 3.7 km/h 85 % 0 mm
02:33 11.7 °C 9.2 °C 1015.1 hPa South 0.3 km/h 1.9 km/h 85 % 0 mm
02:38 11.6 °C 9.3 °C 1015.1 hPa South 2.4 km/h 5.6 km/h 86 % 0 mm
02:40 11.6 °C 9.3 °C 1015.1 hPa South 2.4 km/h 3.7 km/h 86 % 0 mm
02:42 11.6 °C 9.3 °C 1015.1 hPa South 4.2 km/h 5.6 km/h 86 % 0 mm
02:46 11.5 °C 9.2 °C 1015.1 hPa South 1.1 km/h 3.7 km/h 86 % 0 mm
02:51 11.5 °C 9.2 °C 1015.1 hPa North 4 km/h 5.6 km/h 86 % 0 mm
02:53 11.5 °C 9.2 °C 1015.1 hPa South 2.7 km/h 2.7 km/h 86 % 0 mm
02:59 11.5 °C 9.4 °C 1015.1 hPa South 5.3 km/h 5.6 km/h 87 % 0 mm
03:02 11.6 °C 9.4 °C 1014.8 hPa South 3.9 km/h 7.4 km/h 87 % 0 mm
03:04 11.5 °C 9.4 °C 1014.8 hPa South 3.5 km/h 5.6 km/h 87 % 0 mm
03:09 11.6 °C 9.4 °C 1015.1 hPa South 5.6 km/h 6.4 km/h 87 % 0 mm
03:10 11.6 °C 9.4 °C 1014.8 hPa North 5.5 km/h 9.3 km/h 87 % 0 mm
03:15 11.6 °C 9.5 °C 1014.8 hPa South 2.3 km/h 3.7 km/h 87 % 0 mm
03:21 11.6 °C 9.5 °C 1014.8 hPa North 3.9 km/h 5.6 km/h 87 % 0 mm
03:24 11.6 °C 9.5 °C 1014.8 hPa South 4.5 km/h 7.4 km/h 87 % 0 mm
03:28 11.6 °C 9.5 °C 1014.8 hPa South 4.3 km/h 6.4 km/h 87 % 0 mm
03:31 11.6 °C 9.5 °C 1014.8 hPa North 5.1 km/h 5.6 km/h 87 % 0 mm
03:34 11.6 °C 9.5 °C 1014.8 hPa South 3.1 km/h 8 km/h 87 % 0 mm
03:39 11.6 °C 9.5 °C 1014.8 hPa South 5 km/h 6.4 km/h 87 % 0 mm
03:40 11.6 °C 9.5 °C 1014.8 hPa South 5 km/h 5.6 km/h 87 % 0 mm
03:42 11.6 °C 9.5 °C 1014.8 hPa South 4.3 km/h 5.6 km/h 87 % 0 mm
03:47 11.6 °C 9.4 °C 1014.8 hPa South 4.5 km/h 8 km/h 87 % 0 mm
03:52 11.5 °C 9.4 °C 1014.8 hPa South 3.4 km/h 5.6 km/h 87 % 0 mm
03:53 11.5 °C 9.4 °C 1014.8 hPa South 3.9 km/h 5.6 km/h 87 % 0 mm
03:58 11.5 °C 9.6 °C 1014.8 hPa South 2.3 km/h 5.6 km/h 88 % 0 mm
04:02 11.4 °C 9.3 °C 1014.8 hPa South 1.3 km/h 5.6 km/h 87 % 0 mm
04:07 11.4 °C 9.5 °C 1014.8 hPa Calm   1.9 km/h 88 % 0 mm
04:08 11.4 °C 9.5 °C 1014.8 hPa Calm     88 % 0 mm
04:13 11.4 °C 9.5 °C 1014.8 hPa North 2.6 km/h 5.6 km/h 88 % 0 mm
04:18 11.4 °C 9.3 °C 1014.4 hPa Calm     87 % 0 mm
04:21 11.4 °C 9.4 °C 1014.4 hPa South 1.8 km/h 5.6 km/h 88 % 0 mm
04:22 11.4 °C 9.4 °C 1014.4 hPa North 1.3 km/h 5.6 km/h 88 % 0 mm
04:27 11.3 °C 9.4 °C 1014.4 hPa South 2.3 km/h 5.6 km/h 88 % 0 mm
04:28 11.3 °C 9.4 °C 1014.4 hPa South 0.3 km/h 1.9 km/h 88 % 0 mm
04:33 11.3 °C 9.4 °C 1014.4 hPa South 2.9 km/h 5.6 km/h 88 % 0 mm
04:38 11.3 °C 9.4 °C 1014.4 hPa North 4 km/h 5.6 km/h 88 % 0 mm
04:45 11.2 °C 9.3 °C 1014.4 hPa South 1.8 km/h 3.7 km/h 88 % 0 mm
04:46 11.2 °C 9.3 °C 1014.4 hPa South 0.8 km/h 3.7 km/h 88 % 0 mm
04:53 11.2 °C 9.3 °C 1014.4 hPa Calm     88 % 0 mm
04:59 11.1 °C 9.2 °C 1014.4 hPa Calm     88 % 0 mm
05:04 10.9 °C 9 °C 1014.4 hPa North 6.9 km/h 8 km/h 88 % 0 mm
05:09 10.9 °C 9 °C 1014.4 hPa Calm   3.7 km/h 88 % 0 mm
05:10 10.9 °C 9 °C 1014.4 hPa Calm     88 % 0 mm
05:15 10.8 °C 8.9 °C 1014.4 hPa South 1 km/h 1.6 km/h 88 % 0 mm
05:16 10.8 °C 8.9 °C 1014.4 hPa South 1.9 km/h 3.7 km/h 88 % 0 mm
05:17 10.8 °C 8.9 °C 1014.4 hPa South 1.8 km/h 3.7 km/h 88 % 0 mm
05:22 10.8 °C 9.1 °C 1014.4 hPa North 3.9 km/h 5.6 km/h 89 % 0 mm
05:25 10.9 °C 9.2 °C 1014.4 hPa North 2.6 km/h 5.6 km/h 89 % 0 mm
05:28 10.9 °C 9.2 °C 1014.4 hPa South 3.7 km/h 5.6 km/h 89 % 0 mm
05:30 10.9 °C 9.2 °C 1014.4 hPa North 4.8 km/h 5.6 km/h 89 % 0 mm
05:35 10.9 °C 9.2 °C 1014.4 hPa North 2.7 km/h 5.6 km/h 89 % 0 mm
05:36 10.9 °C 9.2 °C 1014.4 hPa South 2.7 km/h 5.6 km/h 89 % 0 mm
05:41 10.8 °C 9.1 °C 1014.4 hPa South 2.7 km/h 3.7 km/h 89 % 0 mm
05:46 10.8 °C 9.1 °C 1014.4 hPa South 5.8 km/h 9.3 km/h 89 % 0 mm
05:47 10.8 °C 9.1 °C 1014.4 hPa North 3.5 km/h 7.4 km/h 89 % 0 mm
05:50 10.8 °C 9.1 °C 1014.4 hPa South 1.6 km/h 5.6 km/h 89 % 0 mm
05:53 10.8 °C 9.1 °C 1014.4 hPa North 2.9 km/h 5.6 km/h 89 % 0 mm
05:58 10.8 °C 9.1 °C 1014.4 hPa South 0.3 km/h 1.9 km/h 89 % 0 mm
06:09 10.6 °C 8.9 °C 1014.4 hPa North 2.9 km/h 5.6 km/h 89 % 0 mm
06:11 10.6 °C 8.8 °C 1014.8 hPa South 1 km/h 1.9 km/h 89 % 0 mm
06:15 10.4 °C 8.7 °C 1014.8 hPa South 0.8 km/h 3.7 km/h 89 % 0 mm
06:20 10.3 °C 8.6 °C 1014.8 hPa South 3.9 km/h 5.6 km/h 89 % 0 mm
06:25 10.3 °C 8.6 °C 1014.8 hPa North 0.2 km/h 3.7 km/h 89 % 0 mm
06:28 10.2 °C 8.5 °C 1014.8 hPa Calm   1.9 km/h 89 % 0 mm
06:30 10.2 °C 8.5 °C 1014.8 hPa Calm     89 % 0 mm
06:34 10.2 °C 8.6 °C 1014.8 hPa South 1 km/h 3.7 km/h 90 % 0 mm
06:39 10.2 °C 8.7 °C 1015.1 hPa South 1.6 km/h 6.4 km/h 90 % 0 mm
06:40 10.2 °C 8.7 °C 1015.1 hPa South 3.9 km/h 5.6 km/h 90 % 0 mm
06:42 10.3 °C 8.7 °C 1014.8 hPa South 2.3 km/h 5.6 km/h 90 % 0 mm
06:46 10.3 °C 8.8 °C 1015.1 hPa South 2.4 km/h 5.6 km/h 90 % 0 mm
06:48 10.4 °C 8.9 °C 1015.1 hPa South 2.1 km/h 5.6 km/h 90 % 0 mm
06:51 10.6 °C 9.2 °C 1014.8 hPa South 1 km/h 3.7 km/h 91 % 0 mm
06:56 10.8 °C 9.4 °C 1015.1 hPa South 2.3 km/h 5.6 km/h 91 % 0 mm
06:58 10.9 °C 9.5 °C 1015.1 hPa South 3.5 km/h 5.6 km/h 91 % 0 mm
06:59 11 °C 9.6 °C 1014.8 hPa South 1 km/h 5.6 km/h 91 % 0 mm
07:04 11.3 °C 9.9 °C 1014.8 hPa Calm     91 % 0 mm
07:05 11.3 °C 9.9 °C 1014.8 hPa Calm     91 % 0 mm
07:06 11.4 °C 9.9 °C 1014.8 hPa North 0.5 km/h 3.2 km/h 91 % 0 mm
07:11 11.9 °C 10.4 °C 1014.8 hPa Calm     91 % 0 mm
07:16 12.3 °C 10.7 °C 1014.8 hPa South 0.8 km/h 1.9 km/h 90 % 0 mm
07:21 12.6 °C 10.7 °C 1015.1 hPa South 0.5 km/h 1.9 km/h 88 % 0 mm
07:22 12.7 °C 10.7 °C 1015.1 hPa South 1 km/h 3.7 km/h 88 % 0 mm
07:26 12.8 °C 10.7 °C 1015.1 hPa North 1.1 km/h 3.7 km/h 87 % 0 mm
07:31 13.1 °C 10.9 °C 1015.1 hPa South 1.6 km/h 5.6 km/h 87 % 0 mm
07:41 13.4 °C 10.7 °C 1015.1 hPa South 1.1 km/h 3.7 km/h 84 % 0 mm
07:42 13.4 °C 10.8 °C 1015.1 hPa North 2.7 km/h 3.7 km/h 84 % 0 mm
07:47 13.8 °C 11.3 °C 1015.1 hPa South 2.7 km/h 5.6 km/h 85 % 0 mm
07:48 13.9 °C 11.2 °C 1015.1 hPa South 3.4 km/h 5.6 km/h 84 % 0 mm
07:53 14.2 °C 11.1 °C 1015.1 hPa South 3.5 km/h 5.6 km/h 82 % 0 mm
07:54 14.2 °C 11.2 °C 1015.1 hPa South 3.5 km/h 5.6 km/h 82 % 0 mm
07:55 14.3 °C 11.2 °C 1015.1 hPa South 3.4 km/h 5.6 km/h 82 % 0 mm
08:00 14.4 °C 11.2 °C 1015.1 hPa South 0.8 km/h 3.7 km/h 81 % 0 mm
08:01 14.4 °C 11.2 °C 1015.1 hPa South 3.5 km/h 5.6 km/h 81 % 0 mm
08:06 14.6 °C 11.3 °C 1015.5 hPa South 3.7 km/h 5.6 km/h 81 % 0 mm
08:09 14.6 °C 11.2 °C 1015.5 hPa South 4 km/h 5.6 km/h 80 % 0 mm
08:11 14.6 °C 11 °C 1015.5 hPa South 6 km/h 11.1 km/h 79 % 0 mm
08:14 14.6 °C 10.9 °C 1015.5 hPa South 5 km/h 6.4 km/h 79 % 0 mm
08:17 14.5 °C 10.9 °C 1015.1 hPa North 3.9 km/h 7.4 km/h 79 % 0 mm
08:22 14.5 °C 10.9 °C 1015.1 hPa North 2.9 km/h 5.6 km/h 79 % 0 mm
08:28 14.7 °C 11.3 °C 1015.5 hPa South 2.4 km/h 3.7 km/h 80 % 0 mm
08:30 14.9 °C 11.3 °C 1015.5 hPa South 6.1 km/h 9.3 km/h 79 % 0 mm
08:33 15.3 °C 11.7 °C 1015.5 hPa South 6 km/h 11.1 km/h 79 % 0 mm
08:37 15.7 °C 11.5 °C 1015.5 hPa South 3.7 km/h 5.6 km/h 76 % 0 mm
08:39 15.9 °C 11.4 °C 1015.5 hPa South 3.2 km/h 5.6 km/h 75 % 0 mm
08:46 16.1 °C 11.4 °C 1015.5 hPa South 5.1 km/h 9.3 km/h 74 % 0 mm
08:51 16.4 °C 11.7 °C 1015.5 hPa South 3.9 km/h 8 km/h 74 % 0 mm
08:52 16.4 °C 11.6 °C 1015.5 hPa South 4.5 km/h 9.3 km/h 73 % 0 mm
08:58 16.7 °C 11.8 °C 1015.5 hPa South 1.4 km/h 5.6 km/h 73 % 0 mm
08:59 16.7 °C 11.7 °C 1015.5 hPa South 2.7 km/h 6.4 km/h 72 % 0 mm
09:03 17.1 °C 11.8 °C 1015.5 hPa South 2.3 km/h 5.6 km/h 71 % 0 mm
09:06 17.3 °C 11.6 °C 1015.5 hPa South 2.4 km/h 5.6 km/h 69 % 0 mm
09:09 17.5 °C 11.7 °C 1015.5 hPa Calm   1.9 km/h 69 % 0 mm
09:14 17.5 °C 11.3 °C 1015.5 hPa South 2.9 km/h 5.6 km/h 67 % 0 mm
09:15 17.5 °C 11.3 °C 1015.5 hPa South 2.9 km/h 5.6 km/h 67 % 0 mm
09:19 17.7 °C 11.4 °C 1015.5 hPa South 1 km/h 5.6 km/h 67 % 0 mm
09:20 17.8 °C 11.8 °C 1015.5 hPa South 3.7 km/h 5.6 km/h 68 % 0 mm
09:25 18.6 °C 11.4 °C 1015.8 hPa South 6.9 km/h 11.1 km/h 63 % 0 mm
09:26 18.6 °C 11.4 °C 1015.8 hPa South 4.8 km/h 7.4 km/h 63 % 0 mm
09:32 18.6 °C 11.1 °C 1015.8 hPa South 6.8 km/h 9.3 km/h 62 % 0 mm
09:36 18.7 °C 11.5 °C 1015.8 hPa South 3.5 km/h 8 km/h 63 % 0 mm
09:37 18.8 °C 11.8 °C 1015.5 hPa South 3.1 km/h 7.4 km/h 64 % 0 mm
09:42 19.2 °C 11.5 °C 1015.5 hPa South 4 km/h 8 km/h 61 % 0 mm
09:44 19.4 °C 10.9 °C 1015.5 hPa South 7.6 km/h 9.7 km/h 58 % 0 mm
09:47 19.6 °C 10.8 °C 1015.5 hPa South 5.5 km/h 9.3 km/h 57 % 0 mm
09:50 19.8 °C 10.5 °C 1015.5 hPa South 11.1 km/h 16.7 km/h 55 % 0 mm
09:55 20 °C 10.4 °C 1015.5 hPa South 8.4 km/h 11.1 km/h 54 % 0 mm
09:56 20 °C 10.4 °C 1015.5 hPa South 4.8 km/h 9.3 km/h 54 % 0 mm
10:02 20.3 °C 10.1 °C 1015.8 hPa South 5.5 km/h 9.3 km/h 52 % 0 mm
10:07 20.7 °C 10.4 °C 1015.8 hPa South 5.5 km/h 11.1 km/h 52 % 0 mm
10:09 20.7 °C 10.2 °C 1015.8 hPa South 4.7 km/h 9.3 km/h 51 % 0 mm
10:13 20.7 °C 10.5 °C 1015.8 hPa North 8.9 km/h 12.9 km/h 52 % 0 mm
10:16 20.9 °C 10.4 °C 1015.8 hPa SSW 10.5 km/h 14.8 km/h 51 % 0 mm
10:19 20.9 °C 10.1 °C 1015.8 hPa SSW 6.1 km/h 9.3 km/h 50 % 0 mm
10:24 21 °C 10.5 °C 1015.8 hPa North 9 km/h 14.8 km/h 51 % 0 mm
10:29 21.2 °C 10.4 °C 1015.8 hPa SW 8.5 km/h 14.8 km/h 50 % 0 mm
10:34 21.3 °C 10.1 °C 1015.8 hPa SW 11.6 km/h 16.7 km/h 49 % 0 mm
10:35 21.3 °C 10.1 °C 1015.8 hPa SW 7.6 km/h 14.8 km/h 49 % 0 mm
10:40 21.4 °C 10.6 °C 1015.8 hPa SW 11.6 km/h 11.6 km/h 50 % 0 mm
10:43 21.5 °C 10.6 °C 1015.8 hPa SW 10.8 km/h 18.5 km/h 50 % 0 mm
10:47 21.7 °C 10.8 °C 1015.8 hPa SSW 10.8 km/h 16.7 km/h 50 % 0 mm
10:52 21.9 °C 10.7 °C 1015.8 hPa SW 13.4 km/h 18.5 km/h 49 % 0 mm
10:58 22.2 °C 11.2 °C 1015.8 hPa SSW 12.6 km/h 16.7 km/h 50 % 0 mm
11:03 22.3 °C 10.7 °C 1015.8 hPa SW 10.9 km/h 16.7 km/h 48 % 0 mm
11:05 22.3 °C 10.7 °C 1015.8 hPa SW 6 km/h 13 km/h 48 % 0 mm
11:11 22.6 °C 11.1 °C 1015.8 hPa SSW 9.7 km/h 14.8 km/h 48 % 0 mm
11:16 22.7 °C 10.8 °C 1015.8 hPa North 12.4 km/h 16.7 km/h 47 % 0 mm
11:21 22.6 °C 11.3 °C 1015.8 hPa WSW 8 km/h 11.3 km/h 49 % 0 mm
11:26 22.9 °C 11 °C 1015.8 hPa SW 11.7 km/h 16.7 km/h 47 % 0 mm
11:28 22.9 °C 11.3 °C 1015.5 hPa WSW 9 km/h 11.1 km/h 48 % 0 mm
11:31 23 °C 11.1 °C 1015.8 hPa SSW 11.6 km/h 11.6 km/h 47 % 0 mm
11:36 23.1 °C 10.8 °C 1015.8 hPa SW 11.6 km/h 18.5 km/h 46 % 0 mm
11:38 23.2 °C 11.2 °C 1015.5 hPa SW 12.6 km/h 16.7 km/h 47 % 0 mm
11:42 23.4 °C 11.4 °C 1015.5 hPa South 7.7 km/h 12.9 km/h 47 % 0 mm
11:47 23.4 °C 11.1 °C 1015.5 hPa North 6.3 km/h 11.3 km/h 46 % 0 mm
11:49 23.3 °C 11.1 °C 1015.5 hPa SSW 6.3 km/h 11.1 km/h 46 % 0 mm
11:54 23.7 °C 11.4 °C 1015.5 hPa North 12.7 km/h 20.4 km/h 46 % 0 mm
12:01 23.8 °C 10.8 °C 1015.5 hPa SSW 6.4 km/h 14.8 km/h 44 % 0 mm
12:06 23.9 °C 10.6 °C 1015.5 hPa WSW 4.7 km/h 11.1 km/h 43 % 0 mm
12:11 24.1 °C 11.1 °C 1015.5 hPa WSW 12.7 km/h 16.7 km/h 44 % 0 mm
12:12 24.1 °C 10.7 °C 1015.5 hPa WSW 11.3 km/h 16.7 km/h 43 % 0 mm
12:16 24.2 °C 10.8 °C 1015.5 hPa SW 15.3 km/h 18.5 km/h 43 % 0 mm
12:18 24.1 °C 10.7 °C 1015.5 hPa South 11.1 km/h 18.5 km/h 43 % 0 mm
12:23 24 °C 10.7 °C 1015.5 hPa SE 12.6 km/h 18.5 km/h 43 % 0 mm
12:25 24.2 °C 10.5 °C 1015.5 hPa SSW 14.2 km/h 18.5 km/h 42 % 0 mm
12:29 24.2 °C 10.1 °C 1015.5 hPa North 15.8 km/h 22.2 km/h 41 % 0 mm
12:34 24.2 °C 10.4 °C 1015.5 hPa SSE 9.7 km/h 13 km/h 42 % 0 mm
12:35 24.3 °C 10.6 °C 1015.5 hPa South 11.1 km/h 13 km/h 42 % 0 mm
12:40 24.8 °C 10.6 °C 1015.5 hPa SSW 14.2 km/h 16.1 km/h 41 % 0 mm
12:45 24.7 °C 10.6 °C 1015.5 hPa SSW 9.2 km/h 13 km/h 41 % 0 mm
12:46 24.7 °C 10.2 °C 1015.5 hPa SSW 6.4 km/h 9.3 km/h 40 % 0 mm
12:51 24.9 °C 10.3 °C 1015.5 hPa South 4.3 km/h 11.1 km/h 40 % 0 mm
12:52 24.9 °C 10.4 °C 1015.5 hPa SE 9.8 km/h 13 km/h 40 % 0 mm
12:56 25.2 °C 10.7 °C 1015.5 hPa South 12.1 km/h 20.4 km/h 40 % 0 mm
12:57 25.2 °C 10.3 °C 1015.5 hPa South 7.4 km/h 16.7 km/h 39 % 0 mm
13:02 25 °C 10.1 °C 1015.5 hPa SW 13.5 km/h 19.3 km/h 39 % 0 mm
13:03 24.9 °C 10 °C 1015.5 hPa SW 10.6 km/h 18.5 km/h 39 % 0 mm
13:07 25 °C 10.4 °C 1015.5 hPa SSW 9 km/h 17.7 km/h 40 % 0 mm
13:09 25 °C 10.1 °C 1015.5 hPa SSW 5.6 km/h 18.5 km/h 39 % 0 mm
13:15 25.3 °C 10.3 °C 1015.1 hPa SSW 11.6 km/h 16.7 km/h 39 % 0 mm
13:20 25.4 °C 9.6 °C 1015.1 hPa North 11.6 km/h 16.7 km/h 37 % 0 mm
13:21 25.3 °C 9.6 °C 1015.1 hPa WSW 5.5 km/h 11.3 km/h 37 % 0 mm
13:26 25.4 °C 10.1 °C 1015.1 hPa South 7.6 km/h 13 km/h 38 % 0 mm
13:27 25.5 °C 10.1 °C 1015.1 hPa SE 10.1 km/h 20.9 km/h 38 % 0 mm
13:32 26.1 °C 9.8 °C 1015.1 hPa SSE 13.2 km/h 18.5 km/h 36 % 0 mm
13:33 26 °C 9.8 °C 1015.1 hPa SSE 9.3 km/h 20.4 km/h 36 % 0 mm
13:35 25.9 °C 9.7 °C 1015.1 hPa SSE 11.4 km/h 16.7 km/h 36 % 0 mm
13:42 26.2 °C 9.9 °C 1014.8 hPa SW 14.6 km/h 17.7 km/h 36 % 0 mm
13:47 25.7 °C 9.9 °C 1014.8 hPa SW 7.2 km/h 11.3 km/h 37 % 0 mm
13:50 25.6 °C 9.4 °C 1014.8 hPa SW 3.2 km/h 5.6 km/h 36 % 0 mm
13:55 25.7 °C 9.9 °C 1014.8 hPa SSE 9.2 km/h 18.5 km/h 37 % 0 mm
13:56 25.7 °C 9.9 °C 1014.8 hPa SSE 9.2 km/h 18.5 km/h 37 % 0 mm
14:01 26.1 °C 10.2 °C 1014.4 hPa SE 11.3 km/h 18.5 km/h 37 % 0 mm
14:06 26.6 °C 9.9 °C 1014.4 hPa SE 12.1 km/h 16.7 km/h 35 % 0 mm
14:12 27.2 °C 9.9 °C 1014.4 hPa South 8.7 km/h 14.8 km/h 34 % 0 mm
14:13 27.2 °C 10.4 °C 1014.4 hPa South 10 km/h 14.8 km/h 35 % 0 mm
14:18 27.1 °C 9.9 °C 1014.4 hPa SE 4.8 km/h 14.8 km/h 34 % 0 mm
14:19 27.2 °C 9.9 °C 1014.4 hPa South 10.9 km/h 13 km/h 34 % 0 mm
14:24 27.1 °C 10.3 °C 1014.4 hPa SE 14 km/h 18.5 km/h 35 % 0 mm
14:29 27.2 °C 9.6 °C 1014.4 hPa SSE 1.9 km/h 9.3 km/h 33 % 0 mm
14:30 27.2 °C 9.5 °C 1014.1 hPa SSE 0.2 km/h 9.3 km/h 33 % 0 mm
14:31 27.2 °C 10 °C 1014.1 hPa ESE 8.4 km/h 8.4 km/h 34 % 0 mm
14:35 27.4 °C 10.1 °C 1014.1 hPa South 11.9 km/h 18.5 km/h 34 % 0 mm
14:41 26.7 °C 9.5 °C 1014.1 hPa SW 12.1 km/h 18.5 km/h 34 % 0 mm
14:46 26.9 °C 9.7 °C 1014.1 hPa ESE 7.7 km/h 14.8 km/h 34 % 0 mm
14:51 27.3 °C 10.1 °C 1014.1 hPa South 8.7 km/h 14.5 km/h 34 % 0 mm
14:52 27.3 °C 10.1 °C 1014.1 hPa South 9.3 km/h 14.8 km/h 34 % 0 mm
14:57 27.3 °C 10.1 °C 1013.8 hPa South 11.4 km/h 16.7 km/h 34 % 0 mm
15:02 26.8 °C 9.6 °C 1014.1 hPa North 4.3 km/h 11.1 km/h 34 % 0 mm
15:03 26.8 °C 9.6 °C 1013.8 hPa SW 5 km/h 5.6 km/h 34 % 0 mm
15:08 26.9 °C 9.7 °C 1013.8 hPa SW 16.7 km/h 20.4 km/h 34 % 0 mm
15:13 26.9 °C 10.2 °C 1013.8 hPa South 8.2 km/h 11.3 km/h 35 % 0 mm
15:14 26.9 °C 9.7 °C 1013.8 hPa South 10.8 km/h 11.1 km/h 34 % 0 mm
15:15 26.9 °C 10.2 °C 1013.8 hPa SSW 14.2 km/h 18.5 km/h 35 % 0 mm
15:16 26.9 °C 9.7 °C 1013.8 hPa SSW 7.9 km/h 18.5 km/h 34 % 0 mm
15:17 26.9 °C 10.2 °C 1013.8 hPa SSW 4.7 km/h 7.4 km/h 35 % 0 mm
15:19 27.1 °C 9.9 °C 1013.8 hPa SSW 2.9 km/h 5.6 km/h 34 % 0 mm
15:21 27.3 °C 10.5 °C 1013.8 hPa SSW 7.7 km/h 13 km/h 35 % 0 mm
15:25 27.4 °C 9.7 °C 1013.8 hPa South 8.4 km/h 14.8 km/h 33 % 0 mm
15:31 27.6 °C 10.8 °C 1013.8 hPa SSE 11.6 km/h 16.7 km/h 35 % 0 mm
15:36 27.7 °C 10.4 °C 1013.8 hPa SSE 12.2 km/h 18.5 km/h 34 % 0 mm
15:40 27.5 °C 9.8 °C 1013.8 hPa WSW 9.3 km/h 16.7 km/h 33 % 0 mm
15:41 27.3 °C 10.1 °C 1013.8 hPa SW 13.8 km/h 18.5 km/h 34 % 0 mm
15:42 27.3 °C 10.5 °C 1013.8 hPa SW 13 km/h 20.9 km/h 35 % 0 mm
15:43 27.3 °C 10.5 °C 1013.8 hPa SW 14.6 km/h 19.3 km/h 35 % 0 mm
15:48 27.3 °C 10.5 °C 1013.4 hPa SW 4 km/h 9.3 km/h 35 % 0 mm
15:49 27.4 °C 10.1 °C 1013.4 hPa West 6.9 km/h 14.5 km/h 34 % 0 mm
15:50 27.5 °C 10.7 °C 1013.4 hPa WSW 12.2 km/h 12.2 km/h 35 % 0 mm
15:51 27.7 °C 10.9 °C 1013.8 hPa SW 12.1 km/h 16.1 km/h 35 % 0 mm
15:56 27.3 °C 10.1 °C 1013.4 hPa SW 6 km/h 11.1 km/h 34 % 0 mm
15:57 27.3 °C 10.1 °C 1013.4 hPa SW 6.1 km/h 9.3 km/h 34 % 0 mm
15:58 27.3 °C 10.5 °C 1013.4 hPa North 6 km/h 11.3 km/h 35 % 0 mm
16:03 27.4 °C 10.2 °C 1013.4 hPa South 14.5 km/h 19.3 km/h 34 % 0 mm
16:04 27.5 °C 10.2 °C 1013.4 hPa SW 14 km/h 18.5 km/h 34 % 0 mm
16:09 27.5 °C 10.2 °C 1013.4 hPa North 12.7 km/h 18.5 km/h 34 % 0 mm
16:12 27.5 °C 10.2 °C 1013.4 hPa SW 8.2 km/h 16.7 km/h 34 % 0 mm
16:17 27.6 °C 10.3 °C 1013.1 hPa SSW 6.3 km/h 11.1 km/h 34 % 0 mm
16:18 27.6 °C 10.3 °C 1013.4 hPa SSW 3.5 km/h 7.4 km/h 34 % 0 mm
16:23 27.9 °C 10.6 °C 1013.1 hPa SSW 10 km/h 18.5 km/h 34 % 0 mm
16:25 27.9 °C 10.6 °C 1013.4 hPa North 8.5 km/h 14.8 km/h 34 % 0 mm
16:30 27.9 °C 10.6 °C 1013.1 hPa SSW 9.7 km/h 13 km/h 34 % 0 mm
16:31 27.9 °C 10.6 °C 1013.1 hPa SSE 9.7 km/h 13 km/h 34 % 0 mm
16:34 27.9 °C 10.6 °C 1013.1 hPa SSW 13.8 km/h 18.5 km/h 34 % 0 mm
16:37 27.7 °C 10.4 °C 1013.1 hPa SSW 16.7 km/h 20.4 km/h 34 % 0 mm
16:39 27.6 °C 10.7 °C 1013.1 hPa SSW 9.3 km/h 20.4 km/h 35 % 0 mm
16:42 27.8 °C 10.5 °C 1013.1 hPa SW 12.7 km/h 18.5 km/h 34 % 0 mm
16:49 27.9 °C 10.6 °C 1013.1 hPa SSW 15.8 km/h 18.5 km/h 34 % 0 mm
16:54 28.1 °C 10.3 °C 1013.1 hPa South 5.8 km/h 14.8 km/h 33 % 0 mm
16:55 28.1 °C 10.3 °C 1013.1 hPa SE 9.7 km/h 12.9 km/h 33 % 0 mm
16:59 28 °C 10.7 °C 1013.1 hPa South 12.7 km/h 20.4 km/h 34 % 0 mm
17:00 28 °C 10.7 °C 1013.4 hPa SSW 16.3 km/h 24.1 km/h 34 % 0 mm
17:01 27.9 °C 10.1 °C 1013.1 hPa South 14.8 km/h 27.8 km/h 33 % 0 mm
17:06 27.6 °C 10.3 °C 1013.4 hPa SSW 13.5 km/h 16.7 km/h 34 % 0 mm
17:12 27.6 °C 10.3 °C 1013.1 hPa SSW 18.5 km/h 20.9 km/h 34 % 0 mm
17:13 27.6 °C 9.9 °C 1013.1 hPa SSW 15.1 km/h 24.1 km/h 33 % 0 mm
17:16 27.6 °C 10.3 °C 1013.4 hPa South 11.9 km/h 16.7 km/h 34 % 0 mm
17:19 27.7 °C 9.9 °C 1013.1 hPa SSE 13.2 km/h 18.5 km/h 33 % 0 mm
17:24 27.9 °C 10.1 °C 1013.1 hPa SW 15.6 km/h 18.5 km/h 33 % 0 mm
17:25 27.8 °C 10.1 °C 1013.1 hPa WSW 13.5 km/h 18.5 km/h 33 % 0 mm
17:27 27.8 °C 10.1 °C 1013.1 hPa South 15.1 km/h 20.4 km/h 33 % 0 mm
17:30 27.7 °C 10.4 °C 1013.1 hPa SSE 8.2 km/h 9.7 km/h 34 % 0 mm
17:31 27.7 °C 10 °C 1013.1 hPa South 12.9 km/h 14.8 km/h 33 % 0 mm
17:33 27.7 °C 9.9 °C 1013.1 hPa South 10.9 km/h 18.5 km/h 33 % 0 mm
17:35 27.6 °C 9.8 °C 1013.1 hPa SSW 5 km/h 13 km/h 33 % 0 mm
17:40 27.5 °C 9.8 °C 1013.1 hPa South 16.6 km/h 22.2 km/h 33 % 0 mm
17:44 27.4 °C 10.2 °C 1013.1 hPa SSW 10 km/h 14.5 km/h 34 % 0 mm
17:47 27.5 °C 10.2 °C 1013.1 hPa SSW 10.3 km/h 22.5 km/h 34 % 0 mm
17:49 27.5 °C 9.8 °C 1013.1 hPa SSW 10.8 km/h 18.5 km/h 33 % 0 mm
17:50 27.5 °C 9.8 °C 1013.1 hPa SSW 8.9 km/h 18.5 km/h 33 % 0 mm
17:55 27.7 °C 10.4 °C 1013.1 hPa SE 10.6 km/h 18.5 km/h 34 % 0 mm
17:58 27.8 °C 10.1 °C 1013.1 hPa SSE 12.9 km/h 18.5 km/h 33 % 0 mm
18:01 27.9 °C 10.6 °C 1013.1 hPa SSW 8.7 km/h 18.5 km/h 34 % 0 mm
18:05 28 °C 10.2 °C 1012.8 hPa SSE 13.8 km/h 22.2 km/h 33 % 0 mm
18:06 28.1 °C 10.7 °C 1013.1 hPa SSW 10.6 km/h 16.7 km/h 34 % 0 mm
18:11 27.7 °C 10 °C 1013.1 hPa SSW 10.3 km/h 14.8 km/h 33 % 0 mm
18:12 27.7 °C 10.4 °C 1013.1 hPa SW 9.2 km/h 16.7 km/h 34 % 0 mm
18:13 27.6 °C 10.3 °C 1013.1 hPa South 13.8 km/h 18.5 km/h 34 % 0 mm
18:17 27.6 °C 10.3 °C 1013.1 hPa South 9.8 km/h 13 km/h 34 % 0 mm
18:18 27.6 °C 10.3 °C 1013.1 hPa SSW 12.9 km/h 18.5 km/h 34 % 0 mm
18:22 27.5 °C 10.2 °C 1013.1 hPa South 11.4 km/h 14.8 km/h 34 % 0 mm
18:27 27.5 °C 10.2 °C 1013.1 hPa SSE 6.9 km/h 12.9 km/h 34 % 0 mm
18:29 27.5 °C 10.2 °C 1013.1 hPa SSE 11.7 km/h 18.5 km/h 34 % 0 mm
18:33 27.4 °C 10.1 °C 1013.1 hPa North 15.1 km/h 20.4 km/h 34 % 0 mm
18:34 27.3 °C 10.5 °C 1013.1 hPa SW 16.7 km/h 24.1 km/h 35 % 0 mm
18:35 27.2 °C 10.4 °C 1013.1 hPa SSW 16.3 km/h 22.2 km/h 35 % 0 mm
18:39 27.2 °C 10.4 °C 1013.1 hPa South 10.9 km/h 14.5 km/h 35 % 0 mm
18:40 27.2 °C 10.4 °C 1013.1 hPa SW 13.7 km/h 20.4 km/h 35 % 0 mm
18:44 27.2 °C 10.8 °C 1013.1 hPa SSE 13.7 km/h 22.2 km/h 36 % 0 mm
18:49 27.2 °C 11.2 °C 1013.1 hPa SSW 13.5 km/h 20.4 km/h 37 % 0 mm
18:52 26.9 °C 11 °C 1013.1 hPa South 17.4 km/h 17.4 km/h 37 % 0 mm
18:53 26.9 °C 11 °C 1013.1 hPa South 18 km/h 22.5 km/h 37 % 0 mm
18:58 26.4 °C 11.7 °C 1013.1 hPa South 15 km/h 20.4 km/h 40 % 0 mm
19:00 26.3 °C 12 °C 1013.1 hPa South 11.9 km/h 18.5 km/h 41 % 0 mm
19:05 26.1 °C 11.8 °C 1013.1 hPa SSW 14 km/h 20.4 km/h 41 % 0 mm
19:07 26.1 °C 12.2 °C 1013.1 hPa South 11.7 km/h 18.5 km/h 42 % 0 mm
19:12 25.6 °C 12.1 °C 1013.4 hPa SSE 13.7 km/h 20.9 km/h 43 % 0 mm
19:14 25.5 °C 12 °C 1013.1 hPa South 13.2 km/h 18.5 km/h 43 % 0 mm
19:19 25.3 °C 12.2 °C 1013.1 hPa North 19.3 km/h 29.6 km/h 44 % 0 mm
19:20 25.2 °C 12.1 °C 1013.1 hPa SSW 14.3 km/h 24.1 km/h 44 % 0 mm
19:25 25.2 °C 12.1 °C 1013.1 hPa South 11.3 km/h 18.5 km/h 44 % 0 mm
19:27 25.2 °C 12.1 °C 1013.1 hPa South 8.2 km/h 13 km/h 44 % 0 mm
19:30 25.2 °C 12.1 °C 1013.4 hPa SSE 16.9 km/h 25.9 km/h 44 % 0 mm
19:32 25.1 °C 12 °C 1013.4 hPa South 17.5 km/h 27.8 km/h 44 % 0 mm
19:37 24.9 °C 12.1 °C 1013.4 hPa South 13.4 km/h 24.1 km/h 45 % 0 mm
19:38 24.8 °C 12.1 °C 1013.4 hPa South 20 km/h 29.6 km/h 45 % 0 mm
19:43 24.4 °C 12.3 °C 1013.4 hPa North 14.2 km/h 20.4 km/h 47 % 0 mm
19:48 24.1 °C 12.1 °C 1013.4 hPa South 17.1 km/h 27.8 km/h 47 % 0 mm
19:49 24.1 °C 12.1 °C 1013.4 hPa South 12.2 km/h 18.5 km/h 47 % 0 mm
19:52 24.1 °C 12.1 °C 1013.4 hPa South 14.2 km/h 18.5 km/h 47 % 0 mm
19:57 23.9 °C 12.3 °C 1013.8 hPa South 12.2 km/h 24.1 km/h 48 % 0 mm
19:59 23.8 °C 12.2 °C 1013.4 hPa South 13.4 km/h 24.1 km/h 48 % 0 mm
20:00 23.8 °C 12.1 °C 1013.8 hPa South 15.4 km/h 16.7 km/h 48 % 0 mm
20:05 23.6 °C 12.3 °C 1013.8 hPa South 13.4 km/h 18.5 km/h 49 % 0 mm
20:09 23.4 °C 12.1 °C 1013.8 hPa South 15.4 km/h 20.4 km/h 49 % 0 mm
20:12 23.3 °C 12.3 °C 1013.8 hPa SSW 8.5 km/h 16.1 km/h 50 % 0 mm
20:14 23.2 °C 12.2 °C 1013.8 hPa SSW 12.7 km/h 20.4 km/h 50 % 0 mm
20:19 23 °C 12.3 °C 1013.8 hPa South 11.7 km/h 18.5 km/h 51 % 0 mm
20:20 22.9 °C 12.3 °C 1013.8 hPa SSW 11.9 km/h 18.5 km/h 51 % 0 mm
20:25 22.4 °C 12.1 °C 1013.8 hPa SSE 13.5 km/h 24.1 km/h 52 % 0 mm
20:30 21.9 °C 12.2 °C 1013.8 hPa SSW 11.4 km/h 20.4 km/h 54 % 0 mm
20:32 21.8 °C 12.1 °C 1014.1 hPa South 14 km/h 18.5 km/h 54 % 0 mm
20:36 21.4 °C 12 °C 1014.1 hPa South 14.8 km/h 20.9 km/h 55 % 0 mm
20:41 21.1 °C 12 °C 1014.1 hPa South 15.1 km/h 18.5 km/h 56 % 0 mm
20:42 21.1 °C 11.9 °C 1014.1 hPa SSW 15.3 km/h 24.1 km/h 56 % 0 mm
20:43 21 °C 12.2 °C 1014.1 hPa SSW 11.9 km/h 18.5 km/h 57 % 0 mm
20:48 20.8 °C 11.9 °C 1014.4 hPa South 12.4 km/h 13 km/h 57 % 0 mm
20:50 20.7 °C 11.8 °C 1014.4 hPa South 9 km/h 18.5 km/h 57 % 0 mm
20:55 20.4 °C 11.9 °C 1014.4 hPa South 8 km/h 13 km/h 58 % 0 mm
20:57 20.3 °C 12.1 °C 1014.4 hPa South 12.9 km/h 16.1 km/h 59 % 0 mm
21:00 20.2 °C 11.9 °C 1014.4 hPa SSW 9.3 km/h 16.7 km/h 59 % 0 mm
21:06 19.9 °C 11.9 °C 1014.4 hPa South 9 km/h 14.8 km/h 60 % 0 mm
21:10 19.7 °C 11.7 °C 1014.4 hPa South 12.7 km/h 20.4 km/h 60 % 0 mm
21:12 19.6 °C 11.9 °C 1014.4 hPa SSE 9.8 km/h 12.9 km/h 61 % 0 mm
21:17 19.3 °C 11.9 °C 1014.8 hPa SSW 10.9 km/h 27.4 km/h 62 % 0 mm
21:18 19.3 °C 11.8 °C 1014.8 hPa South 7.7 km/h 27.8 km/h 62 % 0 mm
21:23 19.1 °C 11.8 °C 1014.8 hPa SSE 10.3 km/h 13 km/h 63 % 0 mm
21:26 18.9 °C 11.7 °C 1014.8 hPa South 7.1 km/h 14.8 km/h 63 % 0 mm
21:31 18.7 °C 11.7 °C 1014.8 hPa South 12.7 km/h 18.5 km/h 64 % 0 mm
21:32 18.7 °C 11.7 °C 1014.8 hPa South 9 km/h 14.8 km/h 64 % 0 mm
21:33 18.6 °C 11.7 °C 1014.8 hPa South 15.1 km/h 16.7 km/h 64 % 0 mm
21:38 18.4 °C 11.5 °C 1014.8 hPa South 12.1 km/h 22.2 km/h 64 % 0 mm
21:43 18.3 °C 11.6 °C 1014.8 hPa South 9.7 km/h 14.8 km/h 65 % 0 mm
21:44 18.3 °C 11.6 °C 1014.8 hPa South 10.9 km/h 14.8 km/h 65 % 0 mm
21:45 18.2 °C 11.6 °C 1014.8 hPa South 9.5 km/h 13 km/h 65 % 0 mm
21:49 18.1 °C 11.6 °C 1014.8 hPa South 11.4 km/h 14.8 km/h 66 % 0 mm
21:50 18.1 °C 11.6 °C 1014.8 hPa South 10.9 km/h 14.8 km/h 66 % 0 mm
21:55 17.9 °C 11.5 °C 1014.8 hPa South 12.2 km/h 20.4 km/h 66 % 0 mm
21:58 17.8 °C 11.6 °C 1015.1 hPa South 8.2 km/h 11.3 km/h 67 % 0 mm
22:01 17.7 °C 11.5 °C 1014.8 hPa North 11.3 km/h 18.5 km/h 67 % 0 mm
22:06 17.6 °C 11.6 °C 1014.8 hPa South 13 km/h 18.5 km/h 68 % 0 mm
22:08 17.5 °C 11.5 °C 1014.8 hPa South 8.4 km/h 13 km/h 68 % 0 mm
22:13 17.3 °C 11.6 °C 1015.1 hPa South 12.1 km/h 14.8 km/h 69 % 0 mm
22:14 17.3 °C 11.6 °C 1015.1 hPa South 10.9 km/h 18.5 km/h 69 % 0 mm
22:19 17.2 °C 11.4 °C 1015.1 hPa South 10.6 km/h 18.5 km/h 69 % 0 mm
22:23 17.1 °C 11.6 °C 1015.1 hPa South 9.2 km/h 18.5 km/h 70 % 0 mm
22:26 16.9 °C 11.4 °C 1015.1 hPa South 12.2 km/h 18.5 km/h 70 % 0 mm
22:29 16.8 °C 11.3 °C 1015.1 hPa North 10.8 km/h 18.5 km/h 70 % 0 mm
22:34 16.7 °C 11.4 °C 1015.1 hPa South 13.4 km/h 20.4 km/h 71 % 0 mm
22:36 16.7 °C 11.4 °C 1015.1 hPa South 7.4 km/h 13 km/h 71 % 0 mm
22:41 16.6 °C 11.3 °C 1015.1 hPa South 10.8 km/h 14.8 km/h 71 % 0 mm
22:44 16.5 °C 11.4 °C 1015.1 hPa North 11.9 km/h 16.7 km/h 72 % 0 mm
22:49 16.4 °C 11.3 °C 1015.1 hPa South 11.9 km/h 18.5 km/h 72 % 0 mm
22:51 16.3 °C 11.3 °C 1015.1 hPa North 8.9 km/h 18.5 km/h 72 % 0 mm
22:56 16.3 °C 11.4 °C 1015.1 hPa South 5.1 km/h 11.1 km/h 73 % 0 mm
23:01 16.1 °C 11.3 °C 1015.1 hPa South 6.6 km/h 9.3 km/h 73 % 0 mm
23:03 16.1 °C 11.3 °C 1015.1 hPa South 8.5 km/h 13 km/h 73 % 0 mm
23:08 16 °C 11.4 °C 1015.1 hPa South 8.9 km/h 18.5 km/h 74 % 0 mm
23:09 15.9 °C 11.3 °C 1015.1 hPa South 8.2 km/h 18.5 km/h 74 % 0 mm
23:14 15.9 °C 11.3 °C 1015.1 hPa North 9 km/h 13 km/h 74 % 0 mm
23:17 15.8 °C 11.2 °C 1015.1 hPa South 11.3 km/h 14.8 km/h 74 % 0 mm
23:22 15.7 °C 11.3 °C 1015.1 hPa South 7.4 km/h 14.8 km/h 75 % 0 mm
23:27 15.6 °C 11.2 °C 1015.1 hPa South 7.7 km/h 12.9 km/h 75 % 0 mm
23:30 15.6 °C 11.2 °C 1015.1 hPa South 7.7 km/h 14.8 km/h 75 % 0 mm
23:34 15.5 °C 11.3 °C 1015.1 hPa North 6.8 km/h 9.7 km/h 76 % 0 mm
23:36 15.4 °C 11.2 °C 1015.1 hPa South 5.5 km/h 13 km/h 76 % 0 mm
23:37 15.4 °C 11.2 °C 1015.1 hPa South 6.1 km/h 7.4 km/h 76 % 0 mm
23:42 15.4 °C 11.2 °C 1015.1 hPa South 9.2 km/h 14.8 km/h 76 % 0 mm
23:43 15.3 °C 11.1 °C 1015.1 hPa South 8.4 km/h 11.3 km/h 76 % 0 mm
23:48 15.3 °C 11.3 °C 1015.1 hPa South 8.2 km/h 11.1 km/h 77 % 0 mm
23:50 15.3 °C 11.3 °C 1015.1 hPa South 6.8 km/h 9.7 km/h 77 % 0 mm
23:53 15.2 °C 11.2 °C 1015.1 hPa North 6.9 km/h 11.1 km/h 77 % 0 mm
23:54 15.2 °C 11.2 °C 1015.1 hPa South 9.3 km/h 13 km/h 77 % 0 mm
23:58 15.2 °C 11.2 °C 1015.1 hPa South 7.4 km/h 13 km/h 77 % 0 mm
Ararat Weather
Compliments of Weather Underground - 3.25 mb
Click here to send mail.


ABOUT

Live weather data from Ararat, Victoria, Australia, 3377
Data uploaded from Cumulus every 5 minutes to Weather Underground.
This site then downloads the raw data for formatting and display.
Metric and imperial data can be displayed. Graphs and historical data available.
Includes Sun and Moon times and rain image live from BOM.

Check out Ararat Weather on Facebook, Twitter and Google +

Help support ongoing costs by checking out the ads





Follow @AraratWeather